Flag for Canada Weather past 2 weeks in Rankin Inlet, Nunavut Territory, Canada

Now
39 °F

Light rain. Overcast.


Feels Like: 29 °F
Forecast: 27 / 36 °F
Wind: 22 mph from West

Location: Rankin Inlet

Current Time: Sep 21, 2014 at 5:47:10 AM

Latest Report: Sep 21, 2014 at 5:00 AM


Visibility: 12 mi

Pressure: 29.73 "Hg

Humidity: 87%

Dew point: 36 °F

Location of Rankin InletLocation

Historic Weather in Rankin Inlet — Graph

°F

Rankin Inlet temperature yesterday

Maximum temperature yesterday: 39 °F (at 1:00 PM)
Minimum temperature yesterday: 36 °F (at 12:00 AM)
Average temperature yesterday: 37 °F

Past Weeks' High & Low Weather Summary

 TemperatureHumidityPressure
High50 °F (Sep 6, 3:00 PM)100% (Sep 7, 9:00 PM)30.07 "Hg (Sep 7, 9:00 PM)
Low27 °F (Sep 15, 12:00 AM)43% (Sep 6, 3:00 PM)29.25 "Hg (Sep 19, 5:00 AM)
Average36 °F76%29.80 "Hg
* Reported Sep 6 4:00 AM — Sep 21 4:00 AM, Rankin Inlet, Weather by CustomWeather, © 2014

Note: Actual official high and low records may vary slightly from our data, if they occured in-between our weather recording intervals... More about our weather records

Advertising

Rankin Inlet weather history for previous 24 hours

 ConditionsComfort  
Time TempWeatherWind HumidityBarometerVisibility
4:00 AM
Sep 21
39 °FLight rain. Overcast.24 mph81%29.74 "Hg10 mi
3:00 AM39 °FPartly cloudy.25 mph75%29.76 "Hg15 mi
2:00 AM39 °FPassing clouds.21 mph81%29.79 "Hg15 mi
1:00 AM39 °FPassing clouds.18 mph81%29.80 "Hg15 mi
12:00 AM39 °FPassing clouds.16 mph81%29.82 "Hg15 mi
11:00 PM
Sep 20
39 °FPassing clouds.20 mph87%29.83 "Hg15 mi
10:00 PM37 °FPassing clouds.17 mph93%29.84 "Hg15 mi
9:00 PM37 °FPassing clouds.17 mph93%29.85 "Hg15 mi
8:00 PM37 °FPassing clouds.15 mph87%29.86 "Hg15 mi
7:00 PM39 °FPartly sunny.12 mph81%29.86 "Hg15 mi
6:00 PM39 °FPartly sunny.9 mph81%29.85 "Hg15 mi
5:00 PM39 °FPartly sunny.8 mph81%29.85 "Hg15 mi
4:00 PM39 °FOvercast.8 mph75%29.84 "Hg15 mi
3:00 PM39 °FPartly sunny.9 mph81%29.83 "Hg15 mi
2:00 PM37 °FPartly sunny.6 mph81%29.81 "Hg15 mi
1:52 PM39 °FPartly sunny.7 mph81%29.82 "Hg15 mi
1:00 PM39 °FPartly sunny.3 mph81%29.81 "Hg15 mi
12:50 PM37 °FPartly sunny.5 mph81%29.80 "Hg15 mi
8:00 AM36 °FFog.10 mph87%29.74 "Hg6 mi
7:00 AM36 °FLow clouds.8 mph93%29.72 "Hg5 mi
6:00 AM36 °FLow clouds.8 mph93%29.71 "Hg15 mi
5:00 AM36 °FPassing clouds.9 mph93%29.68 "Hg15 mi
Weather by CustomWeather, © 2014

See weather overviewHow to use our weather pages